Weather History for San Antonio Stinson, TX

Change the Weather History Date:

Sunday, November 24, 2013

  Actual Average Record
Temperature  
Mean Temperature 41 °F -  
Max Temperature 45 °F 67 °F 86 °F (2010)
Min Temperature 37 °F 47 °F 33 °F (2003)
Degree Days  
Heating Degree Days 24    
Moisture  
Dew Point 36 °F    
Average Humidity 82    
Maximum Humidity 93    
Minimum Humidity 65    
Precipitation  
Precipitation 0.41 in - - ()
Sea Level Pressure  
Sea Level Pressure 30.37 in    
Wind  
Wind Speed 8 mph (NNE)    
Max Wind Speed 13 mph    
Max Gust Speed 25 mph    
Visibility 6 miles    
Events Rain    
Averages and records for this station are not official NWS values.
T = Trace of Precipitation, MM = Missing Value Source: NWS Daily Summary

Daily Weather History Graph

Daily Weather History Graph

Search for Another Location

Airport:

Trip Planner

Search our weather history database for the weather conditions in past years. The results will help you decide how hot, cold, wet, or windy it might be!

Date:

Astronomy

Nov. 24, 2013 Rise Set
Actual Time 7:05 AM CST 5:35 PM CST
Civil Twilight 6:39 AM CST 6:01 PM CST
Nautical Twilight 6:10 AM CST 6:30 PM CST
Astronomical Twilight 5:42 AM CST 6:59 PM CST
Moon 11:48 PM CST (11/24) 12:06 PM CST (11/24)
Length of Visible Light 11h 21m
Length of Day
10h 30m
Waning Gibbous, 60% of the Moon is Illuminated
Nov 24
Waning Gibbous
Nov 25
Last Quarter
Dec 2
New
Dec 9
First Quarter
Dec 17
Full

Hourly Weather History & Observations

Time (CST) Temp. Windchill Dew Point Humidity Pressure Visibility Wind Dir Wind Speed Gust Speed Precip Events Conditions
12:36 AM 44.6 °F 39.7 °F 41.0 °F 87% 30.39 in 2.0 mi NNE 9.2 mph - 0.00 in Rain Light Rain
12:43 AM 44.6 °F 39.7 °F 41.0 °F 87% 30.39 in 1.8 mi NNE 9.2 mph - 0.01 in Rain Light Rain
12:53 AM 44.1 °F 39.0 °F 41.0 °F 89% 30.40 in 1.8 mi NNE 9.2 mph - 0.01 in Rain Light Rain
1:05 AM 44.6 °F 40.2 °F 41.0 °F 87% 30.38 in 2.0 mi NNE 8.1 mph 16.1 mph 0.00 in Rain Light Rain
1:14 AM 44.6 °F 41.4 °F 41.0 °F 87% 30.39 in 3.0 mi North 5.8 mph - 0.00 in Rain Light Rain
1:30 AM 44.6 °F 41.4 °F 41.0 °F 87% 30.39 in 4.0 mi North 5.8 mph - 0.00 in   Overcast
1:53 AM 44.1 °F 40.8 °F 41.0 °F 89% 30.41 in 5.0 mi North 5.8 mph - 0.00 in   Overcast
2:53 AM 44.1 °F 41.5 °F 39.9 °F 85% 30.41 in 5.0 mi NNW 4.6 mph - 0.00 in   Overcast
3:53 AM 45.0 °F 41.8 °F 39.0 °F 80% 30.41 in 9.0 mi NNE 5.8 mph - N/A   Overcast
4:53 AM 45.0 °F 41.2 °F 37.9 °F 76% 30.41 in 10.0 mi North 6.9 mph - 0.00 in   Overcast
5:53 AM 45.0 °F 40.1 °F 36.0 °F 71% 30.40 in 10.0 mi NNE 9.2 mph - N/A   Overcast
6:53 AM 44.1 °F 37.7 °F 34.0 °F 68% 30.43 in 10.0 mi North 12.7 mph 17.3 mph N/A   Overcast
7:53 AM 45.0 °F 40.1 °F 34.0 °F 65% 30.45 in 10.0 mi North 9.2 mph - N/A   Overcast
8:11 AM 42.8 °F 37.0 °F 35.6 °F 76% 30.43 in 1.8 mi North 10.4 mph 25.3 mph 0.05 in Rain Heavy Rain
8:30 AM 42.8 °F 38.0 °F 35.6 °F 76% 30.43 in 3.0 mi NNE 8.1 mph - 0.10 in Rain Light Rain
8:53 AM 42.1 °F 37.1 °F 36.0 °F 79% 30.46 in 6.0 mi NNE 8.1 mph - 0.11 in Rain Light Rain
9:53 AM 42.1 °F 36.6 °F 35.1 °F 76% 30.48 in 10.0 mi NNE 9.2 mph - 0.02 in   Overcast
10:53 AM 42.1 °F 36.6 °F 36.0 °F 79% 30.46 in 10.0 mi NNE 9.2 mph - 0.00 in   Overcast
11:45 AM 42.8 °F 38.0 °F 35.6 °F 76% 30.42 in 10.0 mi North 8.1 mph - N/A   Overcast
11:53 AM 42.1 °F 37.1 °F 36.0 °F 79% 30.43 in 10.0 mi North 8.1 mph - N/A   Overcast
12:48 PM 42.8 °F 38.0 °F 33.8 °F 70% 30.38 in 10.0 mi NE 8.1 mph - N/A   Overcast
12:53 PM 42.1 °F 36.6 °F 34.0 °F 73% 30.40 in 10.0 mi NE 9.2 mph - N/A   Overcast
1:49 PM 42.8 °F 37.0 °F 33.8 °F 70% 30.37 in 10.0 mi North 10.4 mph - 0.00 in   Overcast
1:53 PM 42.1 °F 37.7 °F 34.0 °F 73% 30.38 in 10.0 mi NNE 6.9 mph - 0.00 in   Overcast
2:48 PM 42.8 °F 38.0 °F 35.6 °F 76% 30.34 in 10.0 mi NE 8.1 mph - N/A   Overcast
2:53 PM 43.0 °F 37.2 °F 35.1 °F 74% 30.35 in 10.0 mi NE 10.4 mph - N/A   Overcast
3:03 PM 42.8 °F 37.0 °F 33.8 °F 70% 30.34 in 10.0 mi NNE 10.4 mph - N/A   Overcast
3:53 PM 43.0 °F 37.7 °F 34.0 °F 71% 30.35 in 10.0 mi NE 9.2 mph - N/A   Overcast
4:53 PM 42.1 °F 36.6 °F 34.0 °F 73% 30.35 in 10.0 mi NE 9.2 mph - N/A   Overcast
5:53 PM 42.1 °F 38.4 °F 35.1 °F 76% 30.34 in 10.0 mi ENE 5.8 mph - N/A   Overcast
6:08 PM 41.0 °F 35.2 °F 35.6 °F 81% 30.33 in 10.0 mi ENE 9.2 mph - N/A   Overcast
6:49 PM 41.0 °F 34.7 °F 33.8 °F 76% 30.33 in 10.0 mi NE 10.4 mph - N/A   Overcast
6:53 PM 41.0 °F 35.8 °F 34.0 °F 76% 30.35 in 10.0 mi ENE 8.1 mph - N/A   Overcast
7:09 PM 39.2 °F 32.0 °F 35.6 °F 87% 30.33 in 5.0 mi NNE 11.5 mph - N/A   Haze
7:38 PM 39.2 °F 32.5 °F 33.8 °F 81% 30.33 in 10.0 mi NE 10.4 mph - N/A   Overcast
7:53 PM 39.9 °F 35.1 °F 34.0 °F 79% 30.35 in 10.0 mi NE 6.9 mph - N/A   Overcast
8:19 PM 39.2 °F 34.2 °F 33.8 °F 81% 30.34 in 6.0 mi NE 6.9 mph - N/A   Haze
8:53 PM 39.0 °F 34.0 °F 35.1 °F 86% 30.37 in 3.0 mi NNE 6.9 mph - 0.00 in   Overcast
9:03 PM 37.4 °F 32.1 °F 35.6 °F 93% 30.35 in 2.5 mi NNE 6.9 mph - 0.00 in Rain Light Rain
9:12 PM 37.4 °F 31.4 °F 35.6 °F 93% 30.34 in 4.0 mi NNE 8.1 mph - 0.00 in   Overcast
9:34 PM 37.4 °F 32.1 °F 35.6 °F 93% 30.33 in 2.5 mi NE 6.9 mph - 0.00 in   Overcast
9:53 PM 37.9 °F 34.4 °F 35.1 °F 89% 30.37 in 2.5 mi North 4.6 mph - 0.00 in   Overcast
10:00 PM 37.4 °F 34.9 °F 35.6 °F 93% 30.36 in 3.0 mi North 3.5 mph - N/A   Overcast
10:22 PM 37.4 °F 31.4 °F 35.6 °F 93% 30.32 in 2.5 mi ENE 8.1 mph - 0.01 in Rain Light Rain
10:30 PM 37.4 °F 30.3 °F 35.6 °F 93% 30.31 in 2.0 mi ENE 10.4 mph - 0.02 in Rain Rain
10:48 PM 37.4 °F 32.1 °F 35.6 °F 93% 30.32 in 1.8 mi East 6.9 mph - 0.12 in Rain Heavy Rain
10:53 PM 37.9 °F 33.5 °F 35.1 °F 89% 30.35 in 2.0 mi ENE 5.8 mph - 0.14 in Rain Rain
11:16 PM 37.4 °F 32.8 °F 35.6 °F 93% 30.31 in 3.0 mi ENE 5.8 mph - 0.08 in Rain Rain
11:25 PM 37.4 °F 32.1 °F 35.6 °F 93% 30.30 in 4.0 mi ENE 6.9 mph - 0.09 in Rain Rain
11:33 PM 37.4 °F 31.4 °F 35.6 °F 93% 30.30 in 5.0 mi NE 8.1 mph - 0.10 in Rain Light Rain
11:53 PM 37.9 °F 34.4 °F 35.1 °F 89% 30.35 in 4.0 mi NNW 4.6 mph - 0.13 in Rain Rain